FENGYUN 3A

Last updated on Sat Apr 13 2024 01:02:16 GMT+0100 (British Summer Time)

1 32958U 08026A 24103.46041498 .00000196 00000+0 11403-3 0 9996 2 32958 98.5984 52.5019 0007535 262.1830 97.8491 14.19050825822528
UTC large
Height (km)
Speed (km/s)
/
Latitude / Longitude
Inclination (degrees)
Orbital Period (minutes)
Azimuth
Elevation
Range (km)
Doppler Factor

Next 0 passes for location: London (51.5072 / 0.1276)

Sorry there are no passes over London.